Preview of NWS' New Version of Forecast
This preview is not operational and should not be used for support decisions.

Regional Weather Roundup (RWR)

Issued by National Weather Service (NWS)

                            
000
ASUS43 KDMX 181001
RWRIA 

WEATHER ROUNDUP FOR IOWA
NATIONAL WEATHER SERVICE DES MOINES IA
500 AM CDT WED SEP 18 2019

NOTE: "FAIR" INDICATES FEW OR NO CLOUDS BELOW 12,000 FEET WITH NO
SIGNIFICANT WEATHER AND/OR OBSTRUCTIONS TO VISIBILITY.

* - THESE STATIONS ARE NOT NWS STATIONS...THUS NOT UNDER NWS
QUALITY CONTROL.  THEY ALSO DO NOT REPORT WEATHER SUCH 
AS PRECIPITATION OR FOG.  

IAZ001>003-012>014-020>022-031>034-043>046-181100-
   NORTHWEST IOWA
  
CITY           SKY/WX    TMP DP  RH WIND       PRES   REMARKS
CARROLL *      PTCLDY    73  66  78 S12       29.90F                  
CHEROKEE *     TSTM      72  69  90 S9        29.84S                  
DENISON *      CLEAR     73  70  88 S13G20    29.89F                  
LE MARS *      MOCLDY    73  70  88 S18G26    29.80F                  
SHELDON *        N/A     72  70  94 S9G16     29.81F                  
SIOUX CITY     PTCLDY    75  67  76 MISG      29.82F                  
SPENCER        TSTM      72  67  84 MISG      29.87S                  
STORM LAKE *   MOCLDY    72  68  88 S13       29.83F                  
$$
 
IAZ055>058-069>071-079>083-090>094-181100-
   SOUTHWEST IOWA
  
CITY           SKY/WX    TMP DP  RH WIND       PRES   REMARKS
ATLANTIC *     CLEAR     73  68  83 S12G17    29.91F                  
AUDUBON *        N/A     73  66  78 S8        29.93F                  
CLARINDA *     CLEAR     68  68 100 S3        29.96F                  
COUNCIL BLFS * CLEAR     72  72 100 SE12      29.89F                  
CRESTON *      CLEAR     70  70 100 S10       29.96F                  
HARLAN  *      CLEAR     72  68  88 S12       29.90F                  
LAMONI         CLEAR     72  70  93 S9        29.98F                  
RED OAK *      CLOUDY    72  68  88 S6        29.92F FOG              
SHENANDOAH *   CLEAR     72  68  88 SE7       29.91F                  
$$
 
IAZ047>049-059>061-072>074-084-181100-
   CENTRAL IOWA
  
CITY           SKY/WX    TMP DP  RH WIND       PRES   REMARKS
AMES           CLEAR     70  69  97 SE9       29.94F                  
ANKENY *       CLEAR     72  70  94 S6        29.96F                  
BOONE *        CLEAR     72  72 100 SE8       29.93F                  
CHARITON *     CLEAR     72  72 100 SE8       29.97F                  
DES MOINES     PTCLDY    73  70  90 S12       29.94F                  
GRINNELL*      CLEAR     69  66  92 SE12      30.00F                  
KNOXVILLE *      N/A    N/A N/A N/A MISG        N/A                   
MARSHALLTOWN   CLEAR     69  68  96 SE12      29.96F                  
NEWTON *       CLEAR     70  70 100 SE10      29.97F                  
PELLA *        CLEAR     70  66  87 SE6       29.99F                  
PERRY *        FAIR      71  69  93 S9        29.93F                  
$$
 
IAZ004>006-015-016-023>025-035-036-181100-
   NORTH CENTRAL IOWA
  
CITY           SKY/WX    TMP DP  RH WIND       PRES   REMARKS
ALGONA *       MOCLDY    73  73 100 S15       29.88F                  
CLARION *      CLEAR     72  72 100 S14G22    29.93F                  
ESTHERVILLE    TSTM      70  68  93 S7        29.89R FOG              
FORT DODGE *   CLEAR     74  69  85 S14       29.91F                  
MASON CITY     CLEAR     68  65  90 S13       29.95S                  
FOREST CITY *  FAIR      70  70 100 S15G22    29.92S                  
IOWA FALLS *     N/A     69  64  85 SE13      29.96F                  
$$

IAZ007>011-017>019-026>030-037>042-050>054-066-181100-
   NORTHEAST IOWA
  
CITY           SKY/WX    TMP DP  RH WIND       PRES   REMARKS
CEDAR RAPIDS   FAIR      67  65  93 SE9       30.01F                  
CHARLES CITY * FAIR      68  66  94 S9G16     29.97F                  
CLINTON *      FAIR      64  63  96 SE9       30.07F                  
DECORAH *      FAIR      66  66 100 S9        29.98F                  
DUBUQUE        FAIR      64  63  96 S9        30.06S FOG              
MONTICELLO *   FAIR      64  64 100 SE6       30.04F FOG              
OELWEIN *      CLEAR     66  66 100 SE14      30.00F                  
WATERLOO       FAIR      70  65  84 SE14      29.96F                  
$$
 
IAZ064-065-067-068-078-181100-
   EAST CENTRAL IOWA
  
CITY           SKY/WX    TMP DP  RH WIND       PRES   REMARKS
DAVENPORT      FAIR      65  62  90 SE7       30.07F                  
IOWA CITY      FAIR      68  65  90 SE8       30.03F                  
MUSCATINE *    FAIR      68  66  94 SE6       30.04F                  
QUAD CITIES    FAIR      63  61  93 E5        30.05F                  
$$
 
IAZ062-063-075>077-085>089-095>099-181100-
   SOUTHEAST IOWA
  
CITY           SKY/WX    TMP DP  RH WIND       PRES   REMARKS
BURLINGTON     CLEAR     68  64  87 SE6       30.04F                  
FAIRFIELD *    PTCLDY    70  68  94 SE9       30.02F                  
FORT MADISON * CLEAR     68  66  94 SE6       30.04F                  
KEOKUK *       CLEAR     68  66  94 SE8       30.03F                  
OSKALOOSA *    FAIR      68  65  92 SE6       30.01S                  
OTTUMWA        CLEAR     70  66  87 SE10      29.99F                  
WASHINGTON *     N/A    N/A N/A N/A MISG        N/A                   
$$

ABBREVIATIONS USED IN REMARKS
   TC - TEMPERATURES IN CELSIUS
  WCI - WIND CHILL INDEX
   HX - HEAT INDEX
  VSB - VISIBILITY  
$$